Regional Weather Roundup
Issued by NWS

Home | Current Version | Previous Version | Text Only | Print | Product List | Glossary On
Versions: 1 2 3 4 5 6 7 8 9 10 11 12 13 14 15 16 17 18 19 20 21 22 23 24 25 26 27 28 29 30 31 32 33 34 35 36 37 38 39 40 41 42 43 44 45 46 47 48 49 50
000
ASUS43 KTOP 261108
RWRKS

WEATHER ROUNDUP FOR KANSAS
NATIONAL WEATHER SERVICE GOODLAND KS
600 AM CDT TUE JUL 26 2016

NOTE:  "FAIR" INDICATES FEW OR NO CLOUDS BELOW 12,000 FEET WITH NO
SIGNIFICANT WEATHER AND/OR OBSTRUCTIONS TO VISIBILITY.

KSZ001>006-013>018-027>032-041>047-261200-
NORTHWEST KANSAS

CITY           SKY/WX    TMP DP  RH WIND       PRES   REMARKS
GOODLAND       CLOUDY    67  65  93 S15       30.14R FOG
HAYS           CLOUDY    68  61  77 E5        30.09R
HILL CITY      CLEAR     65  64  97 E3        30.10S FOG
RUSSELL        PTCLDY    66  65  96 E5        30.07S FOG
$$

KSZ061>065-074>080-084>089-261200-
SOUTHWEST KANSAS

CITY           SKY/WX    TMP DP  RH WIND       PRES   REMARKS
DODGE CITY     MOCLDY    68  67  96 S6        30.08F FOG
ELKHART          N/A     67  63  87 SE14        N/A
GARDEN CITY    CLOUDY    68  67  96 S7        30.10S FOG
GREAT BEND     CLOUDY    72  64  78 SE5       30.08R
LIBERAL        CLOUDY    72  66  83 SE10      30.10S
PRATT          CLOUDY    67  67  99 E5        30.07S FOG
$$

KSZ066>073-081>083-090>101-261200-
SOUTHEAST KANSAS

CITY           SKY/WX    TMP DP  RH WIND       PRES   REMARKS
CHANUTE        CLOUDY    74  72  93 NE5       30.02S
COFFEYVILLE    CLOUDY    75  73  93 N6        30.00S
HUTCHINSON     CLOUDY    71  69  93 NE6       30.06S FOG
MEDICINE LODGE   N/A     70  69  97 NE3       30.04S
NEWTON         CLOUDY    72  71  97 NE5       30.07S
PARSONS          N/A    N/A N/A N/A MISG      30.02S
WICHITA INTL   CLOUDY    74  71  91 N7        30.04S
WICHITA JABRA  CLOUDY    71  71 100 N3        30.04S FOG
WICHITA MCCONL PTCLDY    72  71  95 NE6       30.04S
WINFIELD       CLOUDY    75  73  93 N6        30.03S
$$

KSZ007>012-019>026-033>040-048>060-102>105-261200-
NORTHEAST KANSAS

CITY           SKY/WX    TMP DP  RH WIND       PRES   REMARKS
CONCORDIA      CLEAR     64  61  90 CALM      30.08S
EMPORIA        CLOUDY    73  72  96 N3        30.06R
LAWRENCE       PTCLDY    66  65  96 NW3       30.05S
MANHATTAN      CLEAR     66  64  93 CALM      30.06S
MARYSVILLE     FOG       61  61 100 CALM      30.09R VSB 3/4
OLATHE IND     CLEAR     70  68  93 NE5       30.07R
OLATHE EXE     CLEAR     70  67  90 NE6       30.06R
SALINA         CLEAR     72  68  87 CALM      30.07S
TOPEKA BILLARD CLEAR     66  65  96 CALM      30.05S
TOPEKA FORBES  CLEAR     68  66  93 CALM      30.06S
$$




USA.gov is the U.S. government's official web portal to all federal, state and local government web resources and services.